FW8327 Weather Reports


Display with metric or nautical units.
time (UTC)temp
F
wind
direction
speed
MPH
gust
MPH
rain 1hr
in
rain 24hr
in
rain mn
in
humidity
%
barometer
mb
20260510130314 55 19 1.0 3.0 0.00 0.00 0.00 72 1014.8
20260510125810 55 35 0.0 1.0 0.00 0.00 0.00 72 1014.6
20260510125307 55 358 2.0 2.0 0.00 0.00 0.00 72 1014.5
20260510124803 55 10 0.0 1.0 0.00 0.00 0.00 73 1014.6
20260510124300 54 25 1.0 2.0 0.00 0.00 0.00 75 1014.4
20260510123755 54 0 1.0 2.0 0.00 0.00 0.00 74 1014.5
20260510123251 54 20 1.0 2.0 0.00 0.00 0.00 76 1014.1
20260510122748 54 352 1.0 1.0 0.00 0.00 0.00 76 1014.1
20260510122244 53 4 1.0 2.0 0.00 0.00 0.00 74 1013.9
20260510121740 53 7 1.0 2.0 0.00 0.00 0.00 76 1014.0
20260510121238 54 3 2.0 3.0 0.00 0.00 0.00 75 1014.0
20260510120735 53 9 1.0 2.0 0.00 0.00 0.00 76 1013.8
20260510120232 53 3 0.0 0.0 0.00 0.00 0.00 77 1013.8
20260510115728 53 3 0.0 1.0 0.00 0.00 0.00 77 1013.7
20260510115226 53 344 0.0 1.0 0.00 0.00 0.00 77 1013.7
20260510114721 53 357 0.0 0.0 0.00 0.00 0.00 79 1013.5
20260510114218 53 350 0.0 1.0 0.00 0.00 0.00 79 1013.5
20260510113713 52 351 0.0 0.0 0.00 0.00 0.00 82 1013.2
20260510113210 52 116 0.0 0.0 0.00 0.00 0.00 81 1013.4
20260510112706 52 114 0.0 0.0 0.00 0.00 0.00 80 1013.0
20260510112204 52 120 0.0 0.0 0.00 0.00 0.00 80 1012.8
20260510111659 52 123 0.0 0.0 0.00 0.00 0.00 80 1012.8
20260510111156 52 124 0.0 0.0 0.00 0.00 0.00 80 1012.6
20260510110650 52 112 0.0 0.0 0.00 0.00 0.00 80 1012.4
20260510110149 52 9 0.0 0.0 0.00 0.00 0.00 80 1012.3
20260510105644 52 32 0.0 0.0 0.00 0.00 0.00 80 1012.1
20260510105144 53 48 0.0 0.0 0.00 0.00 0.00 79 1012.0
20260510104641 53 78 0.0 0.0 0.00 0.00 0.00 79 1012.2
20260510104137 52 10 0.0 0.0 0.00 0.00 0.00 80 1012.2
20260510103634 53 86 0.0 0.0 0.00 0.00 0.00 81 1012.1
20260510103130 53 120 0.0 0.0 0.00 0.00 0.00 82 1012.1
20260510102626 53 126 0.0 0.0 0.00 0.00 0.00 82 1012.1
20260510102122 53 126 0.0 0.0 0.00 0.00 0.00 82 1012.4
20260510101620 53 124 0.0 0.0 0.00 0.00 0.00 82 1012.2
20260510101118 53 126 0.0 0.0 0.00 0.00 0.00 81 1012.1
20260510100614 53 136 0.0 0.0 0.00 0.00 0.00 81 1012.0
20260510100111 53 158 0.0 0.0 0.00 0.00 0.00 80 1012.0
20260510095608 53 160 0.0 0.0 0.00 0.00 0.00 82 1011.9
20260510095108 53 161 0.0 0.0 0.00 0.00 0.00 81 1011.9
20260510094607 53 161 0.0 0.0 0.00 0.00 0.00 80 1011.6
20260510094102 53 161 0.0 0.0 0.00 0.00 0.00 79 1011.8
20260510093559 53 161 0.0 0.0 0.00 0.00 0.00 80 1011.5
20260510093056 53 161 0.0 0.0 0.00 0.00 0.00 82 1011.3
20260510092553 53 178 0.0 0.0 0.00 0.00 0.00 83 1011.3
20260510092052 53 179 0.0 0.0 0.00 0.00 0.00 83 1011.4
20260510091549 54 179 0.0 0.0 0.00 0.00 0.00 83 1011.6
20260510091045 53 120 0.0 0.0 0.00 0.00 0.00 81 1011.4
20260510090542 53 120 0.0 0.0 0.00 0.00 0.00 81 1011.1
20260510090038 53 330 0.0 0.0 0.00 0.00 0.00 81 1011.1
20260510085533 53 114 0.0 0.0 0.00 0.00 0.00 81 1011.0
20260510085029 53 123 0.0 0.0 0.00 0.00 0.00 81 1010.6
20260510084526 53 123 0.0 0.0 0.00 0.00 0.00 80 1010.7
20260510084023 53 104 0.0 0.0 0.00 0.00 0.00 81 1010.6
20260510083519 53 112 0.0 0.0 0.00 0.00 0.00 82 1010.4
20260510083015 53 29 0.0 0.0 0.00 0.00 0.00 81 1010.4
20260510082512 54 91 0.0 0.0 0.00 0.00 0.00 81 1010.6
20260510082007 53 96 0.0 0.0 0.00 0.00 0.00 81 1010.6
20260510081502 53 110 0.0 0.0 0.00 0.00 0.00 82 1010.8
20260510080958 53 80 0.0 0.0 0.00 0.00 0.00 82 1010.8
20260510080457 54 11 0.0 0.0 0.00 0.00 0.00 81 1010.6
20260510075954 54 47 0.0 0.0 0.00 0.00 0.00 79 1010.7
20260510075452 54 14 0.0 0.0 0.00 0.00 0.00 81 1010.9
20260510074948 54 9 0.0 0.0 0.00 0.00 0.00 80 1010.7
20260510074446 54 315 0.0 0.0 0.00 0.00 0.00 79 1011.1
20260510073942 55 341 0.0 0.0 0.00 0.00 0.00 77 1010.6
20260510073437 55 341 0.0 0.0 0.00 0.00 0.00 76 1010.4
20260510072934 55 5 0.0 0.0 0.00 0.00 0.00 75 1010.2
20260510072431 56 357 0.0 0.0 0.00 0.00 0.00 73 1010.2
20260510071926 56 314 0.0 0.0 0.00 0.00 0.00 72 1010.3
20260510071423 56 124 0.0 0.0 0.00 0.00 0.00 71 1010.0
20260510070921 56 19 0.0 0.0 0.00 0.00 0.00 69 1010.0
20260510070419 56 51 0.0 0.0 0.00 0.00 0.00 71 1009.6
20260510065914 56 4 0.0 0.0 0.00 0.00 0.00 68 1009.9
20260510065410 57 346 0.0 0.0 0.00 0.00 0.00 69 1009.9
20260510064907 56 14 0.0 0.0 0.00 0.00 0.00 69 1010.1
20260510064405 56 17 0.0 0.0 0.00 0.00 0.00 70 1010.1
20260510063901 56 347 0.0 0.0 0.00 0.00 0.00 70 1010.0
20260510063357 56 9 0.0 0.0 0.00 0.00 0.00 71 1010.0
20260510062855 56 355 0.0 0.0 0.00 0.00 0.00 71 1010.0
20260510062349 57 352 0.0 0.0 0.00 0.00 0.00 70 1010.0
20260510061845 57 34 0.0 0.0 0.00 0.00 0.00 71 1009.8
20260510061342 57 352 0.0 0.0 0.00 0.00 0.00 68 1009.8
20260510060838 57 19 0.0 0.0 0.00 0.00 0.00 67 1009.7
20260510060336 57 357 0.0 0.0 0.00 0.00 0.00 68 1009.8
20260510055832 58 4 0.0 0.0 0.00 0.00 0.00 68 1009.7
20260510055330 58 355 0.0 0.0 0.00 0.00 0.00 66 1009.6
20260510054825 58 353 0.0 1.0 0.00 0.00 0.00 64 1009.7
20260510054321 58 51 0.0 0.0 0.00 0.00 0.00 68 1009.7
20260510053816 58 32 0.0 0.0 0.00 0.00 0.00 65 1009.5
20260510053311 58 17 0.0 0.0 0.00 0.00 0.00 64 1009.6
20260510052808 59 358 0.0 0.0 0.00 0.00 0.00 64 1009.6
20260510052306 59 15 0.0 0.0 0.00 0.00 0.00 65 1009.6
20260510051800 59 13 0.0 0.0 0.00 0.00 0.00 63 1009.4
20260510051257 59 2 1.0 2.0 0.00 0.00 0.00 62 1009.4
20260510050753 59 30 0.0 1.0 0.00 0.00 0.00 63 1009.1
20260510050245 60 14 0.0 0.0 0.00 0.00 0.00 62 1008.8
20260510045742 60 14 0.0 1.0 0.00 0.00 0.00 62 1009.0
20260510045238 60 350 0.0 0.0 0.00 0.00 0.00 65 1008.7
20260510044735 60 23 1.0 2.0 0.00 0.00 0.00 63 1009.0
20260510044233 60 8 0.0 0.0 0.00 0.00 0.00 65 1008.6
20260510043728 60 349 0.0 1.0 0.00 0.00 0.00 68 1008.7
20260510043225 60 14 0.0 0.0 0.00 0.00 0.00 72 1008.6
20260510042722 60 301 0.0 0.0 0.00 0.00 0.00 73 1008.7
20260510042218 61 289 0.0 0.0 0.00 0.00 0.00 73 1008.6
20260510041715 62 280 1.0 1.0 0.00 0.00 0.00 69 1008.7
20260510041213 62 260 0.0 0.0 0.00 0.00 0.00 67 1008.4
20260510040709 63 269 0.0 0.0 0.00 0.00 0.00 68 1008.4
20260510040206 63 263 0.0 0.0 0.00 0.00 0.00 67 1008.3
20260510035702 63 251 0.0 0.0 0.00 0.00 0.00 68 1008.2
20260510035158 64 241 0.0 0.0 0.00 0.00 0.00 68 1008.0
20260510034654 64 234 0.0 0.0 0.00 0.00 0.00 68 1008.1
20260510034151 65 267 0.0 0.0 0.00 0.00 0.00 67 1008.1
20260510033647 65 207 0.0 0.0 0.00 0.00 0.00 66 1008.1
20260510033145 65 210 0.0 0.0 0.00 0.00 0.00 67 1008.1
20260510032641 65 243 0.0 0.0 0.00 0.00 0.00 67 1008.2
20260510032137 64 261 0.0 0.0 0.00 0.00 0.00 69 1007.8
20260510031632 65 265 0.0 0.0 0.00 0.00 0.00 72 1008.0
20260510031129 65 190 0.0 0.0 0.00 0.00 0.00 72 1007.9
20260510030623 65 255 0.0 0.0 0.00 0.00 0.00 73 1007.7
20260510030121 65 199 0.0 0.0 0.00 0.00 0.00 74 1007.7
20260510025618 65 154 0.0 0.0 0.00 0.00 0.00 74 1007.8
20260510025115 65 186 0.0 0.0 0.00 0.00 0.00 75 1007.7
20260510024612 65 170 0.0 0.0 0.00 0.00 0.00 75 1007.5
20260510024108 65 192 0.0 0.0 0.00 0.00 0.00 74 1007.7
20260510023604 65 201 0.0 0.0 0.00 0.00 0.00 75 1007.5
20260510023102 65 237 0.0 0.0 0.00 0.00 0.00 75 1007.4
20260510022555 65 217 0.0 0.0 0.00 0.00 0.00 75 1007.4
20260510022049 65 180 0.0 0.0 0.00 0.00 0.00 76 1007.5
20260510021541 65 220 0.0 0.0 0.00 0.00 0.00 76 1007.5
20260510021038 66 155 0.0 0.0 0.00 0.00 0.00 74 1007.2
20260510020532 66 165 0.0 0.0 0.00 0.00 0.00 74 1007.2
20260510020028 66 266 0.0 0.0 0.00 0.00 0.00 73 1007.0
20260510015524 66 235 0.0 2.0 0.00 0.00 0.00 74 1006.8
20260510015020 65 255 0.0 0.0 0.00 0.00 0.00 77 1006.8
20260510014517 65 265 0.0 0.0 0.00 0.00 0.00 78 1006.8
20260510014014 64 288 1.0 2.0 0.00 0.00 0.00 82 1006.9
20260510013509 65 253 0.0 0.0 0.00 0.00 0.00 80 1006.6
20260510013005 66 237 0.0 0.0 0.00 0.00 0.00 77 1006.5
20260510012459 66 179 0.0 0.0 0.00 0.00 0.00 77 1006.1
20260510011955 66 176 0.0 0.0 0.00 0.00 0.00 77 1006.2
20260510011449 66 168 0.0 0.0 0.00 0.00 0.00 77 1006.0
20260510010946 66 172 0.0 0.0 0.00 0.00 0.00 76 1006.0
20260510010443 67 159 0.0 0.0 0.00 0.00 0.00 76 1005.8
20260510005940 67 149 0.0 0.0 0.00 0.00 0.00 75 1005.7
20260510005436 67 159 0.0 0.0 0.00 0.00 0.00 75 1005.6
20260510004934 67 170 0.0 0.0 0.00 0.00 0.00 74 1005.6
20260510004431 67 172 0.0 0.0 0.00 0.00 0.00 73 1005.6
20260510003928 67 224 0.0 0.0 0.00 0.00 0.00 73 1005.8
20260510003425 68 194 0.0 0.0 0.00 0.00 0.00 72 1005.7
20260510002924 68 164 0.0 0.0 0.00 0.00 0.00 71 1005.5
20260510002416 68 170 0.0 0.0 0.00 0.00 0.00 70 1005.5
20260510001912 68 146 0.0 0.0 0.00 0.00 0.00 68 1005.6
20260510001410 69 267 0.0 1.0 0.00 0.00 0.00 67 1005.4
20260510000907 69 194 0.0 0.0 0.00 0.00 0.00 66 1005.4
20260510000404 69 162 0.0 0.0 0.00 0.00 0.00 67 1005.1
20260509235900 69 168 0.0 0.0 0.00 0.00 0.00 66 1005.1
20260509235357 70 160 0.0 0.0 0.00 0.00 0.00 65 1005.1
20260509234853 70 180 0.0 0.0 0.00 0.00 0.00 64 1005.4
20260509234350 70 215 3.0 6.0 0.00 0.00 0.00 63 1005.1
20260509233848 71 176 0.0 0.0 0.00 0.00 0.00 63 1004.9
20260509233345 70 165 0.0 0.0 0.00 0.00 0.00 64 1005.1
20260509232840 71 229 0.0 0.0 0.00 0.00 0.00 63 1004.9
20260509232338 71 249 1.0 2.0 0.00 0.00 0.00 62 1004.9
20260509231834 71 181 0.0 0.0 0.00 0.00 0.00 61 1005.2
20260509231326 71 203 1.0 2.0 0.00 0.00 0.00 61 1005.2
20260509230823 72 252 3.0 6.0 0.00 0.00 0.00 60 1005.3
20260509230320 72 244 1.0 2.0 0.00 0.00 0.00 60 1005.2
20260509225815 72 236 2.0 2.0 0.00 0.00 0.00 60 1005.1
20260509225312 72 210 0.0 0.0 0.00 0.00 0.00 60 1004.7
20260509224809 72 266 4.0 6.0 0.00 0.00 0.00 60 1004.8
20260509224305 72 184 0.0 1.0 0.00 0.00 0.00 59 1004.7
20260509223801 72 271 0.0 1.0 0.00 0.00 0.00 60 1004.7
20260509223258 71 252 2.0 4.0 0.00 0.00 0.00 63 1004.8
20260509222755 70 178 0.0 0.0 0.00 0.00 0.00 67 1004.7
20260509222250 70 262 2.0 3.0 0.00 0.00 0.00 65 1004.8
20260509221746 70 211 0.0 0.0 0.00 0.00 0.00 64 1004.8
20260509221243 70 239 3.0 6.0 0.00 0.00 0.00 62 1004.8
20260509220739 70 132 2.0 4.0 0.00 0.00 0.00 62 1004.9
20260509220236 71 173 1.0 3.0 0.00 0.00 0.00 60 1004.6
20260509215731 71 247 0.0 0.0 0.00 0.00 0.00 63 1004.7
20260509215228 72 234 4.0 6.0 0.00 0.00 0.00 62 1004.5
20260509214725 72 265 0.0 1.0 0.00 0.00 0.00 62 1004.5
20260509214222 72 221 3.0 7.0 0.00 0.00 0.00 62 1004.7
20260509213719 72 263 0.0 0.0 0.00 0.00 0.00 60 1004.6
20260509213214 71 254 4.0 6.0 0.00 0.00 0.00 63 1004.4
20260509212712 72 260 4.0 6.0 0.00 0.00 0.00 62 1004.5
20260509212209 72 233 0.0 0.0 0.00 0.00 0.00 63 1004.6
20260509211705 72 264 2.0 3.0 0.00 0.00 0.00 62 1004.7
20260509211202 72 148 2.0 6.0 0.00 0.00 0.00 64 1004.9
20260509210658 72 271 3.0 4.0 0.00 0.00 0.00 64 1004.7
20260509210156 71 269 2.0 3.0 0.00 0.00 0.00 63 1004.9
20260509205651 71 170 0.0 2.0 0.00 0.00 0.00 64 1004.9
20260509205150 71 211 2.0 6.0 0.00 0.00 0.00 64 1004.8
20260509204646 72 272 3.0 6.0 0.00 0.00 0.00 62 1004.6
20260509204143 72 270 1.0 2.0 0.00 0.00 0.00 63 1004.7
20260509203638 71 245 1.0 2.0 0.00 0.00 0.00 59 1004.8
20260509203132 71 263 8.0 13.0 0.00 0.00 0.00 63 1004.8
20260509202631 72 261 2.0 3.0 0.00 0.00 0.00 61 1004.6
20260509202127 72 243 2.0 2.0 0.00 0.00 0.00 58 1005.1
20260509201622 72 184 0.0 0.0 0.00 0.00 0.00 58 1004.7
20260509201120 72 289 1.0 1.0 0.00 0.00 0.00 60 1004.8
20260509200615 72 269 1.0 2.0 0.00 0.00 0.00 58 1004.6
20260509200110 72 224 0.0 0.0 0.00 0.00 0.00 62 1005.1
20260509195606 72 239 1.0 4.0 0.00 0.00 0.00 59 1004.8
20260509195056 72 255 0.0 0.0 0.00 0.00 0.00 63 1004.8
20260509194555 71 232 1.0 3.0 0.00 0.00 0.00 60 1004.7
20260509194054 72 201 0.0 0.0 0.00 0.00 0.00 65 1005.1
20260509193548 72 130 0.0 0.0 0.00 0.00 0.00 65 1005.2
20260509193044 71 151 0.0 0.0 0.00 0.00 0.00 68 1005.1
20260509192541 72 203 1.0 3.0 0.00 0.00 0.00 66 1005.3
20260509192036 71 187 0.0 0.0 0.00 0.00 0.00 67 1005.1
20260509191531 71 194 0.0 0.0 0.00 0.00 0.00 71 1004.9
20260509191027 71 198 0.0 0.0 0.00 0.00 0.00 71 1004.9
20260509190525 70 158 0.0 0.0 0.00 0.00 0.00 70 1005.1
20260509190023 70 128 0.0 0.0 0.00 0.00 0.00 72 1005.2
20260509185520 70 238 0.0 0.0 0.00 0.00 0.00 71 1005.3
20260509185016 70 229 0.0 2.0 0.00 0.00 0.00 71 1005.3
20260509184515 70 171 0.0 0.0 0.00 0.00 0.00 74 1005.2
20260509184010 70 175 0.0 0.0 0.00 0.00 0.00 72 1005.4
20260509183505 70 149 0.0 0.0 0.00 0.00 0.00 73 1005.3
20260509183001 69 168 0.0 1.0 0.00 0.00 0.00 75 1005.3
20260509182457 70 241 1.0 2.0 0.00 0.00 0.00 73 1005.4
20260509181949 70 162 0.0 0.0 0.00 0.00 0.00 74 1005.4
20260509181447 69 163 0.0 1.0 0.00 0.00 0.00 73 1005.4
20260509180944 69 251 3.0 4.0 0.00 0.00 0.00 73 1005.2
20260509180440 68 210 1.0 4.0 0.00 0.00 0.00 72 1005.2
20260509175937 68 264 0.0 3.0 0.00 0.00 0.00 73 1005.5
20260509175433 68 183 1.0 3.0 0.00 0.00 0.00 73 1005.5
20260509174930 68 241 1.0 2.0 0.00 0.00 0.00 73 1005.3
20260509174426 68 179 0.0 0.0 0.00 0.00 0.00 77 1005.4
20260509173921 67 175 0.0 0.0 0.00 0.00 0.00 75 1005.2
20260509173415 68 191 0.0 0.0 0.00 0.00 0.00 74 1005.3
20260509172912 68 160 0.0 0.0 0.00 0.00 0.00 75 1005.3
20260509172409 67 193 0.0 0.0 0.00 0.00 0.00 76 1005.7
20260509171904 68 158 0.0 0.0 0.00 0.00 0.00 77 1005.6
20260509171400 67 162 0.0 0.0 0.00 0.00 0.00 76 1005.8
20260509170852 67 242 0.0 0.0 0.00 0.00 0.00 78 1005.6
20260509170347 66 209 0.0 1.0 0.00 0.00 0.00 77 1005.6
20260509165841 66 214 0.0 0.0 0.00 0.00 0.00 78 1005.6
20260509165331 67 227 0.0 0.0 0.00 0.00 0.00 78 1005.5
20260509164827 66 216 0.0 0.0 0.00 0.00 0.00 79 1005.8
20260509164324 65 195 0.0 0.0 0.00 0.00 0.00 80 1005.6
20260509163820 66 237 0.0 1.0 0.00 0.00 0.00 78 1005.7
20260509163316 66 260 1.0 2.0 0.00 0.00 0.00 78 1005.7
20260509162815 65 158 0.0 0.0 0.00 0.00 0.00 80 1005.6
20260509162309 65 135 0.0 0.0 0.00 0.00 0.00 80 1005.8
20260509161805 65 212 0.0 0.0 0.00 0.00 0.00 80 1005.8
20260509161301 65 231 0.0 1.0 0.00 0.00 0.00 81 1005.9
20260509160757 65 231 0.0 0.0 0.00 0.00 0.00 80 1005.8
20260509160253 64 172 0.0 0.0 0.00 0.00 0.00 82 1006.0
20260509155748 64 217 0.0 1.0 0.00 0.00 0.00 80 1005.9
20260509155245 64 163 0.0 0.0 0.00 0.00 0.00 82 1006.0
20260509154741 63 140 0.0 1.0 0.00 0.00 0.00 81 1005.8
20260509154239 63 242 1.0 2.0 0.00 0.00 0.00 81 1005.9
20260509153736 63 209 1.0 2.0 0.00 0.00 0.00 80 1005.6
20260509153231 63 138 0.0 0.0 0.00 0.00 0.00 82 1005.7
20260509152727 62 167 0.0 2.0 0.00 0.00 0.00 81 1005.6
20260509152219 63 163 0.0 0.0 0.00 0.00 0.00 81 1005.3
20260509151716 63 225 0.0 1.0 0.00 0.00 0.00 82 1005.7
20260509151213 62 208 0.0 0.0 0.00 0.00 0.00 83 1005.7
20260509150710 62 161 0.0 0.0 0.00 0.00 0.00 84 1005.8
20260509150209 62 169 0.0 0.0 0.00 0.00 0.00 84 1005.6
20260509145704 62 169 0.0 0.0 0.00 0.00 0.00 84 1005.7
20260509145200 62 184 0.0 0.0 0.00 0.00 0.00 87 1005.6
20260509144656 61 235 1.0 1.0 0.00 0.00 0.00 85 1005.7
20260509144154 61 196 0.0 1.0 0.00 0.00 0.00 85 1005.5
20260509143651 60 179 0.0 0.0 0.00 0.00 0.00 85 1005.9
20260509143148 61 160 0.0 0.0 0.00 0.00 0.00 86 1005.9
20260509142644 60 115 0.0 0.0 0.00 0.00 0.00 87 1005.9
20260509142141 60 247 0.0 0.0 0.00 0.00 0.00 85 1005.9
20260509141636 60 237 0.0 0.0 0.00 0.00 0.00 85 1006.0
20260509141133 60 174 0.0 0.0 0.00 0.00 0.00 84 1005.8
20260509140630 60 258 1.0 2.0 0.00 0.00 0.00 84 1005.9
20260509140128 60 241 0.0 0.0 0.00 0.00 0.00 84 1005.8
20260509135625 60 161 0.0 0.0 0.00 0.00 0.00 84 1005.7
20260509135123 60 265 0.0 2.0 0.00 0.00 0.00 84 1005.9
20260509134619 60 217 0.0 0.0 0.00 0.00 0.00 85 1005.7
20260509134117 60 177 0.0 0.0 0.00 0.00 0.00 84 1005.7
20260509133614 60 279 0.0 2.0 0.00 0.00 0.00 84 1005.5
20260509133111 60 152 0.0 0.0 0.00 0.00 0.00 87 1005.4
20260509132609 60 132 0.0 0.0 0.00 0.00 0.00 86 1005.4
20260509132107 60 191 0.0 0.0 0.00 0.00 0.00 86 1005.7
20260509131603 59 151 0.0 0.0 0.00 0.00 0.00 89 1005.6
20260509131100 60 198 0.0 0.0 0.00 0.00 0.00 89 1005.4